Weather History for KLAM - September, 2012

Change the Weather History Date:

Tuesday, September 11, 2012

  Actual Average Record
Temperature  
Mean Temperature 68 °F -  
Max Temperature 76 °F 72 °F 81 °F (1956)
Min Temperature 60 °F 49 °F 35 °F (1986)
Cooling Degree Days 3    
Growing Degree Days 18 (Base 50)    
Moisture  
Dew Point 46 °F    
Average Humidity 48    
Maximum Humidity 73    
Minimum Humidity 27    
Precipitation  
Precipitation 0.05 in - - ()
Sea Level Pressure  
Sea Level Pressure 30.24 in    
Wind  
Wind Speed 5 mph (SW)    
Max Wind Speed 18 mph    
Max Gust Speed 25 mph    
Visibility 10 miles    
Events Rain    
Averages and records for this station are not official NWS values.
T = Trace of Precipitation, MM = Missing Value Source: NWS Daily Summary

Daily Weather History Graph

Daily Weather History Graph

Search for Another Location

Airport or City:

Trip Planner

Search our weather history database for the weather conditions in past years. The results will help you decide how hot, cold, wet, or windy it might be!

Date:

Astronomy

Sep. 11, 2012 Rise Set
Actual Time 6:45 AM MDT 7:17 PM MDT
Civil Twilight 6:19 AM MDT 7:43 PM MDT
Nautical Twilight 5:48 AM MDT 8:13 PM MDT
Astronomical Twilight 5:17 AM MDT 8:44 PM MDT
Moon 2:12 AM MDT (9/11) 4:23 PM MDT (9/11)
Length of Visible Light 13h 23m
Length of Day
12h 32m
Waning Crescent, 21% of the Moon is Illuminated
Sep 11
Waning Crescent
Sep 15
New
Sep 22
First Quarter
Sep 29
Full
Oct 8
Last Quarter

Hourly Weather History & Observations

Time (MDT) Temp. Dew Point Humidity Pressure Visibility Wind Dir Wind Speed Gust Speed Precip Events Conditions
12:15 AM 67.6 °F 45.3 °F 45% 30.26 in 10.0 mi NNW 5.8 mph - N/A   Clear
12:35 AM 66.2 °F 46.8 °F 50% 30.26 in 10.0 mi Calm Calm - N/A   Clear
12:55 AM 64.6 °F 48.2 °F 55% 30.27 in 10.0 mi SE 4.6 mph - N/A   Mostly Cloudy
1:15 AM 65.1 °F 47.7 °F 53% 30.27 in 10.0 mi ENE 3.5 mph - N/A   Mostly Cloudy
1:35 AM 64.8 °F 48.2 °F 55% 30.26 in 10.0 mi Calm Calm - N/A   Mostly Cloudy
1:55 AM 63.7 °F 48.4 °F 57% 30.27 in 10.0 mi SW 3.5 mph - N/A   Overcast
2:15 AM 63.9 °F 49.5 °F 59% 30.26 in 10.0 mi Calm Calm - N/A Rain Rain
2:35 AM 62.6 °F 52.0 °F 68% 30.26 in 10.0 mi West 4.6 mph - N/A Rain Light Rain
2:55 AM 63.5 °F 49.8 °F 61% 30.26 in 10.0 mi West 6.9 mph - N/A   Mostly Cloudy
3:15 AM 63.7 °F 49.1 °F 59% 30.26 in 10.0 mi WNW 4.6 mph - N/A   Overcast
3:35 AM 63.7 °F 48.4 °F 57% 30.26 in 10.0 mi WNW 4.6 mph - N/A   Mostly Cloudy
3:55 AM 63.9 °F 48.2 °F 57% 30.26 in 10.0 mi NW 3.5 mph - N/A   Overcast
4:15 AM 63.7 °F 48.2 °F 57% 30.26 in 10.0 mi Calm Calm - N/A   Overcast
4:35 AM 64.0 °F 47.8 °F 56% 30.26 in 10.0 mi Calm Calm - N/A   Overcast
4:55 AM 63.1 °F 48.2 °F 58% 30.25 in 10.0 mi Calm Calm - N/A   Overcast
5:15 AM 62.2 °F 48.2 °F 60% 30.26 in 10.0 mi Calm Calm - N/A   Mostly Cloudy
5:35 AM 60.6 °F 49.1 °F 66% 30.26 in 10.0 mi Calm Calm - N/A   Clear
5:55 AM 60.8 °F 48.9 °F 65% 30.26 in 10.0 mi Calm Calm - N/A   Clear
6:15 AM 61.0 °F 48.4 °F 63% 30.27 in 10.0 mi West 3.5 mph - N/A   Clear
6:35 AM 61.3 °F 48.2 °F 62% 30.27 in 10.0 mi Calm Calm - N/A   Mostly Cloudy
6:55 AM 61.3 °F 48.4 °F 62% 30.26 in 10.0 mi Calm Calm - N/A   Overcast
7:15 AM 62.1 °F 48.6 °F 61% 30.27 in 10.0 mi Calm Calm - N/A   Mostly Cloudy
7:35 AM 62.8 °F 48.9 °F 61% 30.27 in 10.0 mi Calm Calm - N/A   Mostly Cloudy
7:55 AM 64.4 °F 49.1 °F 58% 30.27 in 10.0 mi Calm Calm - N/A   Mostly Cloudy
8:15 AM 65.1 °F 48.2 °F 54% 30.27 in 10.0 mi Calm Calm - N/A   Scattered Clouds
8:35 AM 66.9 °F 47.3 °F 49% 30.27 in 10.0 mi Calm Calm - N/A   Scattered Clouds
8:55 AM 67.1 °F 47.3 °F 49% 30.28 in 10.0 mi Calm Calm - N/A   Scattered Clouds
9:15 AM 67.3 °F 46.9 °F 48% 30.28 in 10.0 mi Calm Calm - N/A   Clear
9:35 AM 68.7 °F 47.1 °F 46% 30.28 in 10.0 mi SE 3.5 mph - N/A   Scattered Clouds
9:55 AM 69.3 °F 46.9 °F 45% 30.28 in 10.0 mi ESE 6.9 mph - N/A   Mostly Cloudy
10:15 AM 70.7 °F 46.9 °F 43% 30.28 in 10.0 mi ESE 5.8 mph - N/A   Clear
10:35 AM 70.3 °F 46.6 °F 43% 30.28 in 10.0 mi Calm Calm - N/A   Clear
10:55 AM 72.0 °F 46.4 °F 40% 30.27 in 10.0 mi SE 9.2 mph - N/A   Clear
11:15 AM 73.0 °F 46.4 °F 39% 30.26 in 7.0 mi South 9.2 mph - N/A   Clear
11:35 AM 73.6 °F 47.5 °F 39% 30.26 in 10.0 mi South 9.2 mph 18.4 mph N/A   Clear
11:55 AM 73.8 °F 47.5 °F 39% 30.25 in 10.0 mi South 9.2 mph - N/A   Clear
12:15 PM 74.5 °F 46.2 °F 37% 30.24 in 10.0 mi SSE 9.2 mph - N/A   Clear
12:35 PM 75.0 °F 45.5 °F 35% 30.23 in 10.0 mi SSE 15.0 mph 19.6 mph N/A   Clear
12:55 PM 75.9 °F 44.2 °F 32% 30.22 in 10.0 mi South 17.3 mph 21.9 mph N/A   Clear
1:15 PM 76.3 °F 43.5 °F 31% 30.21 in 10.0 mi South 13.8 mph 25.3 mph N/A   Scattered Clouds
1:35 PM 76.6 °F 40.6 °F 27% 30.21 in 10.0 mi WNW 6.9 mph - N/A   Mostly Cloudy
1:55 PM 74.8 °F 41.2 °F 30% 30.21 in 10.0 mi West 9.2 mph - N/A   Overcast
2:15 PM 70.5 °F 47.8 °F 44% 30.21 in 7.0 mi WNW 5.8 mph 18.4 mph 0.02 in Rain Heavy Rain
2:35 PM 72.0 °F 51.1 °F 48% 30.19 in 10.0 mi South 4.6 mph - 0.05 in   Overcast
2:55 PM 73.0 °F 45.3 °F 37% 30.19 in 10.0 mi SSW 13.8 mph 20.7 mph 0.05 in   Scattered Clouds
3:15 PM 73.0 °F 48.0 °F 41% 30.19 in 7.0 mi West 16.1 mph 25.3 mph N/A Rain Light Rain
3:35 PM 73.4 °F 44.8 °F 36% 30.19 in 10.0 mi West 10.4 mph 19.6 mph N/A   Scattered Clouds
3:55 PM 73.8 °F 42.6 °F 33% 30.19 in 10.0 mi WSW 18.4 mph - N/A   Scattered Clouds
4:15 PM 74.7 °F 40.6 °F 29% 30.19 in 10.0 mi SW 15.0 mph 19.6 mph N/A   Clear
4:35 PM 73.9 °F 40.8 °F 30% 30.19 in 10.0 mi WSW 10.4 mph 20.7 mph N/A   Scattered Clouds
4:55 PM 73.4 °F 41.7 °F 32% 30.19 in 10.0 mi South 13.8 mph 19.6 mph N/A   Mostly Cloudy
5:15 PM 72.7 °F 40.8 °F 32% 30.19 in 10.0 mi South 5.8 mph - N/A   Overcast
5:35 PM 73.2 °F 41.4 °F 32% 30.18 in 10.0 mi SSW 8.1 mph - N/A   Scattered Clouds
5:55 PM 72.3 °F 41.4 °F 33% 30.19 in 10.0 mi WSW 18.4 mph 23.0 mph N/A   Clear
6:15 PM 70.5 °F 41.9 °F 35% 30.19 in 10.0 mi West 13.8 mph 20.7 mph N/A   Clear
6:35 PM 69.6 °F 41.2 °F 36% 30.19 in 10.0 mi WSW 12.7 mph 20.7 mph N/A   Scattered Clouds
6:55 PM 69.1 °F 42.3 °F 38% 30.19 in 10.0 mi WSW 12.7 mph 18.4 mph N/A   Scattered Clouds
7:15 PM 68.9 °F 42.1 °F 38% 30.19 in 10.0 mi SW 4.6 mph - N/A   Mostly Cloudy
7:35 PM 68.9 °F 42.1 °F 38% 30.19 in 10.0 mi Calm Calm - N/A   Mostly Cloudy
7:55 PM 68.2 °F 42.4 °F 39% 30.21 in 10.0 mi WSW 4.6 mph - N/A   Overcast
8:15 PM 67.6 °F 42.8 °F 41% 30.22 in 10.0 mi SW 4.6 mph - N/A   Mostly Cloudy
8:35 PM 66.7 °F 43.5 °F 43% 30.23 in 10.0 mi West 6.9 mph - N/A   Scattered Clouds
8:55 PM 66.2 °F 43.9 °F 44% 30.24 in 10.0 mi NNW 3.5 mph - N/A   Overcast
9:15 PM 65.8 °F 44.1 °F 45% 30.24 in 10.0 mi Calm Calm - N/A   Overcast
9:35 PM 66.2 °F 45.0 °F 46% 30.24 in 10.0 mi ESE 3.5 mph - N/A   Overcast
9:55 PM 65.1 °F 46.4 °F 51% 30.25 in 10.0 mi SSE 4.6 mph - N/A   Overcast
10:35 PM 61.5 °F 50.2 °F 66% 30.25 in 10.0 mi South 4.6 mph - N/A   Overcast
10:55 PM 60.4 °F 51.1 °F 71% 30.26 in 10.0 mi South 5.8 mph - N/A   Mostly Cloudy
11:15 PM 60.1 °F 51.3 °F 73% 30.26 in 10.0 mi SW 3.5 mph - N/A   Mostly Cloudy
11:35 PM 60.8 °F 51.3 °F 71% 30.26 in 10.0 mi Calm Calm - N/A   Mostly Cloudy
11:55 PM 61.2 °F 50.4 °F 68% 30.25 in 10.0 mi Calm Calm - N/A   Overcast